Starlink 31077

operational
NORAD ID: 58637 Int'l Des: 2023-203 Owner: SPXS Country: US Constellation: starlink
LEOCIRCULAR

Starlink 31077について

説明を読み込み中...

リアルタイム位置

3D地球を読み込み中...

次回通過

高度履歴

Altitude vs Time

uPlot chart will show altitude changes over time

軌道要素

1 58637U 23203V 25303.73480677 .00001328 00000-0 57755-4 0 9991
2 58637 43.0047 81.2580 0001942 273.0725 86.9905 15.27604835104918
Epoch: Oct 30, 2025 • Age: 9 hours

現在のステータス

高度 493.5 km
速度 7.62 km/s
衛星直下点 -39.28°S, 118.21°W
打ち上げ日 Dec 23, 2023
運用期間 1.8 years
タイプ internet

技術仕様

分類 Payload
質量 730.00 kg
乾燥質量 700.00 kg
総質量 730.00 kg
長さ 0.30 m
直径 4.10 m
スパン 29.00 m
形状 Box + pan
製造者 SPXS
バスタイプ Starlink V2M
フェーズステータス In Orbit
所有者/国 SPXS/US

大規模コンステレーション

Loading constellations...